Volver al catálogo

FENGYUN 1C DEB

ActivoSSO
NORAD 31026·DEBRIS·🇨🇳 China

Lanzado May 10, 1999 desde Taiyuan Satellite Launch Center

Loading…

Próximos Pases (próximas 24 horas)

TLE

ActualizadoSource: Space-Track

Época: Sep 12, 2026, 00:53 UTC

1 31026U 99025BDU 26255.03722635  .00000087  00000-0  10686-3 0  9994
2 31026  98.7899 177.7976 0134483 163.1445 263.2718 13.83507886718054

Sigue FENGYUN 1C DEB en tiempo real con AllMySat

Download on the App Store